Content
SEND FEEDBACK

Daily
Averages
Monthly
Summary
Germany

MECKENBEUREN, GERMANY


Home > Europe > Germany
Elevation: 1335 feet     Latitude: 47 42N     Longitude: 009 30E

WEATHER
 
SELECT A DAY
Number of Records: 196,204;   Date Range: 7/1/96 - 7/30/14
 
SHARE

PRINT THIS DATA

[ ← Previous Day ]
WEATHER ALMANAC - FEBRUARY 13, 2013
[ Next Day → ]
[ °C ]   °F
Weather ElementAverageHighLow
Temperature25.6 °F30.2 °F (2:50 pm)19.4 °F (11:20 pm)
Dewpoint17 °F23 °F (12:50 am)12.2 °F (4:50 pm)
Humidity71.1 %93 % (12:50 am)51 % (4:20 pm)
Barometer30.13 in30.24 in (9:20 pm)29.98 in (12:50 am)
Wind Speed3.9 mph8.1 mph (10:50 am)
Weather ElementAverage
Visibility4.7 mi
Wind DirectionENE (53.5 °)

Weather ElementTotal
Precipitation---
Heating Degree Days40.2 (Base 65)
Averaged from 46 records on February 13, 2013
WEATHER CONDITIONS BREAKOUT
WIND DIRECTION BREAKOUT
WEATHER BY HOUR - FEBRUARY 13, 2013
[ °C ]   °F
Local TimeTemperatureDewpointHumidityBarometerVisibilityWind DirectionWind SpeedGust SpeedPrecipitationEventsConditions
12:50 AM24.8 °F23.0 °F93 %29.98 in1.4 miCalmMostly Cloudy
1:20 AM24.8 °F23.0 °F93 %29.98 in1.5 miVariable2.3 mphOvercast
1:50 AM24.8 °F23.0 °F93 %29.98 in1.5 miNE (50°)2.3 mphOvercast
2:20 AM24.8 °F23.0 °F93 %30.01 in1.6 miNE (40°)3.5 mphOvercast
2:50 AM24.8 °F21.2 °F86 %30.01 in1.5 miVariable1.2 mphMostly Cloudy
3:20 AM24.8 °F21.2 °F86 %30.01 in1.9 miVariable2.3 mphOvercast
3:50 AM24.8 °F21.2 °F86 %30.01 in1.9 miCalmOvercast
4:20 AM24.8 °F21.2 °F86 %30.04 in1.7 miVariable2.3 mphOvercast
4:50 AM24.8 °F21.2 °F86 %30.04 inVariable3.5 mphOvercast
5:20 AM24.8 °F21.2 °F86 %30.04 in1.8 miVariable2.3 mphOvercast
5:50 AM24.8 °F21.2 °F86 %30.04 in2.5 miCalmOvercast
6:20 AM24.8 °F21.2 °F86 %30.04 inNNE (20°)3.5 mphMostly Cloudy
6:50 AM24.8 °F21.2 °F86 %30.06 inVariable3.5 mphOvercast
7:20 AM24.8 °F19.4 °F80 %30.06 in3.7 miNE (50°)4.6 mphOvercast
7:50 AM24.8 °F19.4 °F80 %30.09 in3.7 miVariable3.5 mphOvercast
8:20 AM24.8 °F19.4 °F80 %30.09 in3.7 miVariable2.3 mphOvercast
8:50 AM24.8 °F19.4 °F80 %30.09 in3.1 miVariable3.5 mphOvercast
9:20 AM24.8 °F17.6 °F74 %30.12 in4.3 miVariable3.5 mphOvercast
9:50 AM26.6 °F17.6 °F69 %30.12 in5.0 miNE (50°)5.8 mphMostly Cloudy
10:20 AM26.6 °F15.8 °F64 %30.12 in5.0 miENE (60°)6.9 mphOvercast
10:50 AM26.6 °F15.8 °F64 %30.12 in5.6 miENE (60°)8.1 mphMostly Cloudy
11:20 AM26.6 °F15.8 °F64 %30.15 in6.2 miNE (50°)6.9 mphMostly Cloudy
11:50 AM28.4 °F15.8 °F59 %30.15 in6.2 miNE (50°)6.9 mphMostly Cloudy
12:20 PM28.4 °F15.8 °F59 %30.15 in6.2 miENE (60°)6.9 mphMostly Cloudy
12:50 PM28.4 °F15.8 °F59 %30.15 in6.2 miNE (40°)4.6 mphMostly Cloudy
1:20 PM28.4 °F15.8 °F59 %30.15 in6.2 miNE (40°)5.8 mphMostly Cloudy
1:50 PM28.4 °F15.8 °F59 %30.15 in6.2 miNE (50°)5.8 mphMostly Cloudy
2:20 PM28.4 °F15.8 °F59 %30.15 in6.2 miNE (50°)5.8 mphMostly Cloudy
2:50 PM30.2 °F15.8 °F55 %30.15 in6.2 miENE (60°)4.6 mphMostly Cloudy
3:20 PM30.2 °F15.8 °F55 %30.15 in6.2 miENE (70°)5.8 mphMostly Cloudy
3:50 PM28.4 °F14.0 °F55 %30.18 in6.2 miNE (50°)6.9 mphOvercast
4:20 PM30.2 °F14.0 °F51 %30.18 in6.2 miNorth (10°)6.9 mphOvercast
4:50 PM28.4 °F12.2 °F51 %30.18 in6.2 miNorth (10°)8.1 mphOvercast
5:50 PM26.6 °F12.2 °F55 %30.21 in6.2 miNNE (20°)3.5 mphOvercast
6:20 PM26.6 °F14.0 °F59 %30.21 in6.2 miNNE (20°)4.6 mphOvercast
6:50 PM26.6 °F14.0 °F59 %30.21 in6.2 miNNE (30°)3.5 mphOvercast
7:20 PM26.6 °F14.0 °F59 %30.21 in6.2 miNW (310°)2.3 mphOvercast
7:50 PM24.8 °F14.0 °F64 %30.21 in6.2 miVariable1.2 mphOvercast
8:20 PM24.8 °F14.0 °F64 %30.21 in6.2 miNNW (330°)3.5 mphOvercast
8:50 PM23.0 °F14.0 °F68 %30.21 in6.2 miENE (60°)1.2 mphMostly Cloudy
9:20 PM23.0 °F14.0 °F68 %30.24 in6.2 miNE (40°)4.6 mphMostly Cloudy
9:50 PM23.0 °F14.0 °F68 %30.24 in5.6 miNE (40°)3.5 mphScattered Clouds
10:20 PM21.2 °F12.2 °F68 %30.24 in5.6 miNorth (350°)3.5 mph
10:50 PM21.2 °F12.2 °F68 %30.24 in5.6 miNorth (350°)2.3 mph
11:20 PM19.4 °F12.2 °F74 %30.24 in5.0 miVariable2.3 mph
11:50 PM19.4 °F12.2 °F74 %30.24 in4.3 miNE (40°)3.5 mph
Hourly data recorded from EDNY, located miles away from Meckenbeuren, Germany







STORIES FROM OUR PARTNERS